Location: *
(33.8649°S, 62.1526°E)
Time: 23:46:20
(UTC+00:00)

Cosmos 2369 Rocket - Pass Details

Date: 17 May 2021
Orbit: 827 x 854 km, 71.0° (Epoch: 21 June)

Event Time Altitude Azimuth Distance (km) Brightness Sun altitude
Rises 15:07:55 0° 192° (SSW) 3,405 5.4 -27.0°
Reaches altitude 10° 15:10:34 10° 183° (S) 2,462 4.6 -27.5°
Enters shadow 15:11:09 13° 181° (S) 2,272 4.4 -27.7°
